[[{"header":{"parameterUnit":"m.s-1","parameterCategory":1,"la1":30.2991,"la2":30.254,"lo1":-89.0895,"lo2":-89.0444,"dy":0.0017,"dx":0.0017,"nx":28,"ny":28,"refTime":"2025-01-29T03:00:00:Z","depth":0,"parameterNumber":2,"parameterNumberName":"U-component_of_WINDS"},"data":[0,0,0,0,0,0,0,0,0,0,0,0,0,0,0,0,0,0,0,0,0,0,0,0,0,0,0,0,0,0,0,0,0,0,0,0,0,0,0,0,0,0,0,0,0,0,0,0,0,0,0,0,0,0,0,0,0,0,-2.6204,-2.6204,0,-2.6264,-2.6265,-2.6266,-2.6229,-2.6227,-2.6225,-2.6224,-2.6288,-2.6291,-2.6295,0,0,0,0,0,0,0,0,0,0,0,0,0,-2.6057,-2.606,-2.6203,-2.6204,-2.6205,-2.6264,-2.6265,-2.6266,-2.6229,-2.6227,-2.6225,-2.6223,-2.6287,-2.6291,-2.6295,0,0,0,0,0,0,0,0,0,0,0,0,0,-2.612,-2.6061,-2.6203,-2.6194,-2.6194,-2.6264,-2.6265,-2.6266,-2.623,-2.6227,-2.6224,-2.6222,-2.6286,-2.629,-2.6295,-2.6379,0,0,-2.6311,-2.6313,0,0,0,0,0,0,0,0,-2.6116,-2.6125,-2.6194,-2.6195,-2.6194,-2.6236,-2.6237,-2.6304,-2.623,-2.6216,-2.6224,-2.6221,-2.6273,-2.6279,-2.6296,-2.6382,-2.6385,-2.6311,-2.6314,-2.6316,-2.6318,0,0,0,0,0,0,0,-2.6112,-2.6122,-2.6228,-2.6196,-2.6196,-2.6187,-2.6193,-2.625,-2.6259,-2.6217,-2.6215,-2.6222,-2.6273,-2.6291,-2.6297,-2.6386,-2.6311,-2.6316,-2.6319,-2.6321,-2.6544,-2.6547,0,0,0,0,0,0,-2.6108,-2.6119,-2.6226,-2.6229,-2.6148,-2.6192,-2.6198,-2.6226,-2.6258,-2.626,-2.6224,-2.622,-2.6284,-2.6292,-2.63,-2.64,-2.6316,-2.6321,-2.6324,-2.6541,-2.6545,-2.6548,0,0,0,0,0,0,-2.6105,-2.6118,-2.6223,-2.6174,-2.6186,-2.6197,-2.6228,-2.6228,-2.6247,-2.6263,-2.6265,-2.6242,-2.6282,-2.6293,-2.636,-2.6401,-2.6323,-2.6328,-2.6538,-2.6542,-2.6546,-2.6601,0,0,0,0,0,0,-2.6101,-2.6117,-2.6149,-2.6174,-2.6189,-2.6282,-2.623,-2.6231,-2.6256,-2.6251,-2.628,-2.6283,-2.6281,-2.6352,-2.6365,-2.6407,-2.6332,-2.6534,-2.654,-2.6545,-2.6595,-2.6607,-2.6616,0,0,0,0,0,-2.6096,-2.6162,-2.615,-2.6164,-2.6229,-2.6284,-2.6293,-2.6289,-2.6259,-2.6291,-2.6302,-2.6282,-2.6395,-2.636,-2.6373,-2.6418,-2.6531,-2.6538,-2.6545,-2.6591,-2.6604,-2.6616,0,0,0,0,0,0,-2.6142,-2.6165,-2.6153,-2.6229,-2.6255,-2.6278,-2.6318,-2.6304,-2.6339,-2.6333,-2.6328,-2.6335,-2.6405,-2.6418,-2.6378,-2.65,-2.6459,-2.6468,-2.6489,-2.6502,-2.6512,-2.6507,-2.6336,0,0,0,0,0,-2.616,-2.6203,-2.6222,-2.6287,-2.6301,-2.6308,-2.6332,-2.6327,-2.6353,-2.6364,-2.638,-2.6407,-2.6449,-2.6476,-2.6516,-2.6597,-2.6603,-2.6635,-2.6645,-2.6653,-2.6662,-2.6706,-2.672,-2.6569,-2.6569,-2.6569,0,0,-2.62,-2.6218,-2.6246,-2.6297,-2.6316,-2.6361,-2.6317,-2.6366,-2.6399,-2.6372,-2.6436,-2.6448,-2.6479,-2.6553,-2.6587,-2.6566,-2.6704,-2.6662,-2.6668,-2.6672,-2.6714,-2.6728,-2.6741,-2.6574,-2.6573,-2.6572,0,0,-2.6295,-2.6313,-2.6369,-2.639,-2.6419,-2.6423,-2.6437,-2.6462,-2.6469,-2.6533,-2.6514,-2.6553,-2.6625,-2.6647,-2.6668,-2.6772,-2.6754,-2.6785,-2.6839,-2.6882,-2.6893,-2.6904,-2.694,-2.6954,-2.6793,-2.6793,-2.6793,0,-2.634,-2.6406,-2.64,-2.6451,-2.6474,-2.6451,-2.6508,-2.6528,-2.657,-2.6587,-2.6563,-2.6652,-2.6671,-2.6751,-2.6776,-2.6794,-2.6809,-2.6781,-2.6892,-2.6903,-2.6912,-2.6947,-2.6961,-2.6796,-2.6796,-2.6796,-2.6795,0,-2.6461,-2.6507,-2.6549,-2.6588,-2.6617,-2.667,-2.6673,-2.6703,-2.6695,-2.6702,-2.6767,-2.6789,-2.6832,-2.6851,-2.6844,-2.6929,-2.6916,-2.6892,-2.685,-2.693,-2.6963,-2.6976,-2.6801,-2.68,-2.6799,-2.6798,0,0,-2.6586,-2.6621,-2.6637,-2.6654,-2.6685,-2.6721,-2.6774,-2.6816,-2.6841,-2.687,-2.6914,-2.6976,-2.6954,-2.6978,-2.6974,-2.7012,-2.7092,-2.6984,-2.6984,-2.7003,-2.7187,-2.7203,-2.7219,-2.7081,-2.7083,-2.7085,-2.7184,0,-2.6682,-2.6773,-2.677,-2.6855,-2.6898,-2.6876,-2.6922,-2.6947,-2.6954,-2.6992,-2.7001,-2.7044,-2.7013,-2.7027,-2.7063,-2.7074,-2.7128,-2.7067,-2.7122,-2.7124,-2.7114,-2.7236,-2.7254,-2.7346,-2.7197,-2.7199,-2.72,0,-2.6806,-2.6839,-2.6929,-2.6953,-2.6971,-2.7012,-2.705,-2.7086,-2.7113,-2.7116,-2.7143,-2.7132,-2.7187,-2.7143,-2.7218,-2.7176,-2.7198,-2.7207,-2.7211,-2.7215,-2.7166,-2.7243,-2.7375,-2.7389,-2.722,-2.7219,-2.7217,0,-2.6888,-2.6954,-2.7016,-2.7032,-2.7063,-2.7092,-2.7106,-2.7131,-2.7156,-2.7189,-2.7205,-2.7245,-2.7267,-2.7298,-2.7299,-2.7267,-2.7374,-2.7331,-2.7378,-2.7378,-2.7401,-2.7399,-2.7537,-2.7416,-2.7416,-2.7416,-2.7416,0,-2.6995,-2.7051,-2.7053,-2.7092,-2.7153,-2.7149,-2.721,-2.7222,-2.7244,-2.7284,-2.7269,-2.7307,-2.7306,-2.7345,-2.7346,-2.7408,-2.7418,-2.7422,-2.7421,-2.7423,-2.7422,-2.7437,-2.743,-2.742,-2.7419,-2.7418,-2.7417,0,-2.7096,-2.71,-2.7166,-2.719,-2.7197,-2.7241,-2.7261,-2.7298,-2.7304,-2.7355,-2.7367,-2.7377,-2.7422,-2.7427,-2.748,-2.748,-2.7554,-2.7547,-2.7545,-2.7543,-2.759,-2.7585,-2.7742,-2.7762,-2.7629,-2.763,-2.7631,0,-2.7164,-2.7206,-2.7234,-2.7259,-2.7275,-2.7316,-2.7341,-2.7339,-2.7366,-2.74,-2.7433,-2.7477,-2.7511,-2.7585,-2.7597,-2.7638,-2.7631,-2.7683,-2.7637,-2.7637,-2.7631,-2.7628,-2.7632,-2.7692,-2.7693,-2.7695,-2.7696,0,-2.7285,-2.7284,-2.7321,-2.7358,-2.7389,-2.7418,-2.7446,-2.7468,-2.7469,-2.7501,-2.7546,-2.7573,-2.7627,-2.767,-2.771,-2.7725,-2.7711,-2.771,-2.7723,-2.7725,-2.7721,-2.7723,-2.7568,-2.7706,-2.7705,-2.7705,-2.7704,-2.7704,-2.7371,-2.7407,-2.7432,-2.7473,-2.7493,-2.752,-2.7555,-2.7565,-2.7603,-2.7646,-2.7642,-2.7693,-2.7719,-2.7771,-2.7789,-2.7829,-2.7811,-2.783,-2.7835,-2.7839,-2.7844,-2.7715,-2.7836,-2.7836,-2.7836,-2.7835,-2.7835,0,-2.749,-2.7504,-2.7542,-2.7581,-2.7614,-2.7597,-2.7627,-2.7655,-2.7699,-2.7725,-2.7759,-2.7812,-2.7854,-2.787,-2.7911,-2.794,-2.7934,-2.7951,-2.7948,-2.7952,-2.7858,-2.7842,-2.7954,-2.7954,-2.7954,-2.7954,-2.7954,-2.7954,-2.7555,-2.7615,-2.7618,-2.7688,-2.7703,-2.7751,-2.777,-2.7794,-2.7814,-2.7873,-2.7908,-2.7917,-2.7939,-2.7982,-2.802,-2.8023,-2.8039,-2.8058,-2.8059,-2.7971,-2.7959,-2.7947,-2.7932,-2.8062,-2.8062,-2.815,-2.8151,-2.8151]},{"header":{"parameterUnit":"m.s-1","parameterCategory":1,"la1":30.2991,"la2":30.254,"lo1":-89.0895,"lo2":-89.0444,"dy":0.0017,"dx":0.0017,"nx":28,"ny":28,"refTime":"2025-01-29T03:00:00:Z","depth":0,"parameterNumber":3,"parameterNumberName":"V-component_of_WINDS"},"data":[0,0,0,0,0,0,0,0,0,0,0,0,0,0,0,0,0,0,0,0,0,0,0,0,0,0,0,0,0,0,0,0,0,0,0,0,0,0,0,0,0,0,0,0,0,0,0,0,0,0,0,0,0,0,0,0,0,0,0.9088,0.9088,0,0.9124,0.9124,0.9125,0.9124,0.9124,0.9123,0.9123,0.9159,0.916,0.9162,0,0,0,0,0,0,0,0,0,0,0,0,0,0.902,0.9022,0.9088,0.9089,0.9089,0.9124,0.9124,0.9125,0.9124,0.9124,0.9123,0.9122,0.9158,0.916,0.9162,0,0,0,0,0,0,0,0,0,0,0,0,0,0.9052,0.9022,0.9088,0.9093,0.9094,0.9124,0.9124,0.9125,0.9124,0.9124,0.9123,0.9122,0.9158,0.916,0.9162,0.9189,0,0,0.9168,0.9169,0,0,0,0,0,0,0,0,0.905,0.9055,0.9092,0.9093,0.9094,0.9119,0.9114,0.9146,0.9124,0.9113,0.9123,0.9122,0.9146,0.9149,0.9157,0.9191,0.9192,0.9168,0.917,0.9171,0.9171,0,0,0,0,0,0,0,0.9048,0.9053,0.9102,0.9092,0.9093,0.9094,0.9097,0.912,0.9133,0.9114,0.9114,0.9118,0.9146,0.9155,0.9158,0.9193,0.9168,0.917,0.9172,0.9172,0.9252,0.9253,0,0,0,0,0,0,0.9045,0.9051,0.9101,0.9103,0.907,0.9095,0.91,0.9111,0.9133,0.9135,0.9118,0.9118,0.9152,0.9156,0.9159,0.9194,0.9171,0.9173,0.9174,0.9252,0.9253,0.9254,0,0,0,0,0,0,0.9044,0.9049,0.91,0.9077,0.9084,0.9097,0.9111,0.9112,0.9121,0.9136,0.9139,0.9125,0.9152,0.9156,0.9182,0.9195,0.9174,0.9175,0.9251,0.9252,0.9253,0.9263,0,0,0,0,0,0,0.9042,0.9049,0.9059,0.9078,0.9085,0.9122,0.9111,0.9114,0.9125,0.9124,0.9143,0.9146,0.9151,0.9179,0.9184,0.9198,0.9177,0.9249,0.9251,0.9253,0.9261,0.9264,0.9267,0,0,0,0,0,0.9039,0.906,0.906,0.9066,0.9098,0.9122,0.9127,0.9133,0.9126,0.9137,0.9147,0.9145,0.9193,0.9182,0.9188,0.9202,0.9249,0.9251,0.9253,0.926,0.9264,0.9266,0,0,0,0,0,0,0.9042,0.9062,0.9062,0.909,0.9104,0.9122,0.9136,0.9136,0.9153,0.9152,0.9159,0.9163,0.9189,0.9198,0.9185,0.923,0.922,0.9223,0.9224,0.9227,0.923,0.9227,0.9179,0,0,0,0,0,0.9046,0.9064,0.9081,0.9103,0.9111,0.9122,0.9133,0.9137,0.9152,0.9158,0.917,0.9185,0.9204,0.9216,0.9233,0.9262,0.9267,0.9275,0.9278,0.928,0.9283,0.93,0.9305,0.926,0.926,0.926,0,0,0.9054,0.9067,0.9078,0.9104,0.9116,0.9135,0.9127,0.9147,0.9162,0.9161,0.9187,0.9196,0.9213,0.9241,0.9254,0.9249,0.9296,0.9282,0.9284,0.9286,0.9303,0.9307,0.9311,0.9261,0.9261,0.9261,0,0,0.9079,0.909,0.9111,0.9123,0.9142,0.9149,0.9154,0.9173,0.9179,0.9205,0.9205,0.9222,0.9254,0.9267,0.9277,0.9309,0.9308,0.9314,0.9328,0.9345,0.9349,0.9352,0.9365,0.9369,0.9317,0.9317,0.9317,0,0.9086,0.9115,0.9121,0.9142,0.9154,0.9155,0.9177,0.9188,0.9212,0.922,0.9214,0.9255,0.9267,0.9299,0.9306,0.9314,0.9321,0.9312,0.9348,0.9351,0.9354,0.9366,0.9371,0.9318,0.9318,0.9317,0.9317,0,0.9124,0.9144,0.9159,0.9182,0.9195,0.9216,0.9227,0.924,0.9242,0.9251,0.9278,0.9292,0.9314,0.9321,0.9324,0.9354,0.9351,0.9346,0.9336,0.9359,0.937,0.9375,0.9319,0.9318,0.9318,0.9318,0,0,0.9151,0.9179,0.9184,0.9196,0.9216,0.9232,0.9254,0.9275,0.9287,0.9303,0.9322,0.9349,0.9346,0.9358,0.9362,0.9377,0.9402,0.9371,0.9371,0.9377,0.9438,0.9442,0.9447,0.9402,0.9403,0.9404,0.9437,0,0.9179,0.9218,0.9225,0.9259,0.9278,0.928,0.9299,0.9314,0.9323,0.934,0.935,0.937,0.9363,0.9371,0.9385,0.9396,0.9415,0.9394,0.942,0.9421,0.9417,0.9453,0.9457,0.9487,0.9441,0.9442,0.9443,0,0.9217,0.9235,0.9271,0.9291,0.9299,0.9316,0.9337,0.9354,0.9371,0.9377,0.9391,0.9394,0.9417,0.9406,0.9438,0.9424,0.9435,0.9442,0.9443,0.9447,0.9434,0.9458,0.9497,0.9502,0.9449,0.9449,0.9448,0,0.9235,0.9268,0.9294,0.9304,0.9327,0.9339,0.9349,0.9366,0.9379,0.9398,0.9406,0.9427,0.9438,0.9455,0.9463,0.9454,0.9496,0.9484,0.9502,0.9501,0.9511,0.951,0.9553,0.9516,0.9516,0.9516,0.9516,0,0.9266,0.9288,0.9303,0.9319,0.9344,0.9353,0.9377,0.9387,0.9403,0.9422,0.9424,0.9441,0.9451,0.947,0.9477,0.9504,0.9509,0.9514,0.9516,0.9515,0.9514,0.9523,0.9521,0.9517,0.9517,0.9517,0.9517,0,0.9291,0.9301,0.933,0.935,0.9356,0.9374,0.9391,0.9407,0.9416,0.944,0.9446,0.946,0.9483,0.9493,0.9521,0.9525,0.9557,0.9556,0.9551,0.9552,0.9569,0.9567,0.962,0.9627,0.9584,0.9585,0.9585,0,0.931,0.9328,0.935,0.9363,0.9374,0.9394,0.9408,0.9417,0.9431,0.9453,0.9467,0.949,0.9509,0.9545,0.9558,0.9579,0.958,0.9597,0.9584,0.9582,0.9582,0.9582,0.9584,0.96,0.96,0.9601,0.9601,0,0.9345,0.9349,0.9369,0.9391,0.9407,0.9425,0.9442,0.9452,0.9464,0.948,0.9503,0.9518,0.9547,0.957,0.9593,0.9604,0.9605,0.9605,0.961,0.961,0.9607,0.961,0.9559,0.9604,0.9604,0.9603,0.9603,0.9603,0.9368,0.9385,0.9403,0.9425,0.9439,0.9456,0.9472,0.9484,0.9504,0.9528,0.9532,0.9558,0.9576,0.9607,0.9619,0.9639,0.9635,0.9642,0.9645,0.9647,0.9648,0.9603,0.9643,0.9643,0.9643,0.9643,0.9643,0,0.9404,0.9416,0.9437,0.9461,0.9479,0.9478,0.9498,0.9513,0.9535,0.9552,0.9571,0.9599,0.9622,0.9637,0.966,0.9674,0.9675,0.9679,0.9679,0.9682,0.965,0.9644,0.9678,0.9678,0.9678,0.9678,0.9678,0.9678,0.9425,0.9453,0.946,0.9495,0.9507,0.9532,0.9544,0.9559,0.9573,0.9604,0.9623,0.9633,0.965,0.9675,0.9696,0.97,0.9709,0.9714,0.9718,0.9688,0.9684,0.968,0.9675,0.9715,0.9715,0.9748,0.9748,0.9749]}]]